Hourly Weather Rus'ko-Orlivka

Today, 18 April, Sunday

Time Temperature Precipitation Wind Pressure Humidity
00:00 +10°C° 0 mm 1 mps 753 mmHg 73%
01:00 +9°C° 0 mm 1 mps 753 mmHg 73%
02:00 +9°C° 0 mm 1 mps 753 mmHg 73%
03:00 +8°C° 0 mm 0 mps 753 mmHg 74%
04:00 +9°C° 0 mm 1 mps 753 mmHg 74%
05:00 +9°C° 0 mm 1 mps 752 mmHg 75%
06:00 +9°C° 0 mm 1 mps 752 mmHg 75%
07:00 +10°C° 0 mm 1 mps 752 mmHg 71%
08:00 +10°C° 0 mm 2 mps 752 mmHg 66%
09:00 +12°C° 0 mm 2 mps 752 mmHg 61%
10:00 +13°C° 0 mm 2 mps 752 mmHg 57%
11:00 +14°C° 0 mm 2 mps 752 mmHg 52%
12:00 +14°C° 0 mm 3 mps 751 mmHg 48%
13:00 +15°C° 0 mm 2 mps 751 mmHg 45%
14:00 +15°C° 0 mm 2 mps 751 mmHg 43%
15:00 +16°C° 0 mm 1 mps 751 mmHg 41%
16:00 +15°C° 0 mm 1 mps 751 mmHg 43%
17:00 +15°C° 0 mm 1 mps 750 mmHg 45%
18:00 +15°C° 0 mm 1 mps 750 mmHg 47%
19:00 +14°C° 0 mm 2 mps 751 mmHg 54%
20:00 +12°C° 0 mm 2 mps 751 mmHg 61%
21:00 +10°C° 0 mm 2 mps 751 mmHg 68%
22:00 +10°C° 0 mm 2 mps 751 mmHg 70%
23:00 +9°C° 0 mm 2 mps 751 mmHg 72%

Tomorrow, 19 April, Monday

Time Temperature Precipitation Wind Pressure Humidity
00:00 +10°C° 0 mm 1 mps 751 mmHg 75%
01:00 +9°C° 0 mm 1 mps 751 mmHg 75%
02:00 +9°C° 0 mm 1 mps 751 mmHg 75%
03:00 +9°C° 0 mm 1 mps 751 mmHg 75%
04:00 +9°C° 0 mm 1 mps 751 mmHg 75%
05:00 +9°C° 0 mm 1 mps 750 mmHg 74%
06:00 +9°C° 0 mm 1 mps 750 mmHg 74%
07:00 +10°C° 0 mm 1 mps 750 mmHg 68%
08:00 +12°C° 0 mm 1 mps 750 mmHg 63%
09:00 +13°C° 0 mm 1 mps 750 mmHg 58%
10:00 +14°C° 0 mm 1 mps 750 mmHg 53%
11:00 +15°C° 0 mm 1 mps 750 mmHg 49%
12:00 +16°C° 0 mm 1 mps 749 mmHg 45%
13:00 +18°C° 0 mm 1 mps 749 mmHg 43%
14:00 +18°C° 0 mm 1 mps 749 mmHg 41%
15:00 +19°C° 0 mm 1 mps 748 mmHg 39%
16:00 +18°C° 0 mm 1 mps 748 mmHg 44%
17:00 +16°C° 0 mm 2 mps 748 mmHg 49%
18:00 +16°C° 0 mm 2 mps 748 mmHg 54%
19:00 +15°C° 0 mm 2 mps 748 mmHg 59%
20:00 +14°C° 0 mm 1 mps 748 mmHg 63%
21:00 +13°C° 0 mm 1 mps 748 mmHg 68%
22:00 +13°C° 0 mm 1 mps 748 mmHg 70%
23:00 +12°C° 0 mm 1 mps 748 mmHg 73%

Day after tomorrow, 20 April, Tuesday

Time Temperature Precipitation Wind Pressure Humidity
00:00 +12°C° 0 mm 1 mps 747 mmHg 76%
01:00 +12°C° 0.1 mm 2 mps 747 mmHg 77%
02:00 +12°C° 0.1 mm 2 mps 746 mmHg 79%
03:00 +10°C° 0.1 mm 3 mps 746 mmHg 81%
04:00 +10°C° 0.9 mm 4 mps 745 mmHg 85%
05:00 +10°C° 0.9 mm 4 mps 744 mmHg 89%
06:00 +9°C° 0.9 mm 5 mps 743 mmHg 93%
07:00 +9°C° 1.6 mm 5 mps 742 mmHg 94%
08:00 +10°C° 1.6 mm 6 mps 742 mmHg 95%
09:00 +10°C° 1.6 mm 6 mps 741 mmHg 96%
10:00 +10°C° 3.6 mm 7 mps 740 mmHg 95%
11:00 +11°C° 3.6 mm 8 mps 739 mmHg 94%
12:00 +11°C° 3.6 mm 9 mps 739 mmHg 93%
13:00 +12°C° 0.5 mm 8 mps 739 mmHg 89%
14:00 +13°C° 0.5 mm 8 mps 739 mmHg 85%
15:00 +15°C° 0.5 mm 8 mps 738 mmHg 80%
16:00 +13°C° 0 mm 8 mps 738 mmHg 80%
17:00 +14°C° 0 mm 7 mps 739 mmHg 80%
18:00 +12°C° 0 mm 7 mps 739 mmHg 80%
19:00 +11°C° 0 mm 8 mps 739 mmHg 82%
20:00 +10°C° 0 mm 8 mps 740 mmHg 84%
21:00 +8°C° 0 mm 9 mps 740 mmHg 86%
22:00 +7°C° 0.1 mm 9 mps 740 mmHg 86%
23:00 +7°C° 0.1 mm 9 mps 740 mmHg 87%

21 April, Wednesday

Time Temperature Precipitation Wind Pressure Humidity
00:00 +7°C° 0.1 mm 9 mps 740 mmHg 88%
01:00 +7°C° 0.1 mm 9 mps 741 mmHg 89%
02:00 +7°C° 0.1 mm 8 mps 741 mmHg 89%
03:00 +8°C° 0.1 mm 7 mps 742 mmHg 90%
04:00 +8°C° 0.2 mm 7 mps 743 mmHg 89%
05:00 +8°C° 0.2 mm 7 mps 744 mmHg 88%
06:00 +6°C° 0.2 mm 7 mps 745 mmHg 87%
07:00 +8°C° 0 mm 6 mps 746 mmHg 84%
08:00 +8°C° 0 mm 6 mps 747 mmHg 81%
09:00 +8°C° 0 mm 6 mps 748 mmHg 78%
10:00 +10°C° 0 mm 6 mps 749 mmHg 69%
11:00 +11°C° 0 mm 7 mps 749 mmHg 60%
12:00 +12°C° 0 mm 7 mps 749 mmHg 51%
13:00 +14°C° 0 mm 7 mps 750 mmHg 49%
14:00 +14°C° 0 mm 7 mps 750 mmHg 47%
15:00 +14°C° 0 mm 6 mps 750 mmHg 45%
16:00 +14°C° 0 mm 6 mps 751 mmHg 47%
17:00 +14°C° 0 mm 5 mps 751 mmHg 49%
18:00 +13°C° 0 mm 4 mps 751 mmHg 51%
19:00 +12°C° 0 mm 3 mps 752 mmHg 55%
20:00 +12°C° 0 mm 2 mps 753 mmHg 60%
21:00 +10°C° 0 mm 1 mps 753 mmHg 64%
22:00 +10°C° 0 mm 1 mps 753 mmHg 66%
23:00 +10°C° 0 mm 1 mps 754 mmHg 67%

22 April, Thursday

Time Temperature Precipitation Wind Pressure Humidity
00:00 +9°C° 0 mm 1 mps 754 mmHg 69%
01:00 +9°C° 0 mm 1 mps 754 mmHg 70%
02:00 +9°C° 0 mm 1 mps 754 mmHg 70%
03:00 +9°C° 0 mm 1 mps 754 mmHg 71%
04:00 +9°C° 0 mm 1 mps 754 mmHg 70%
05:00 +9°C° 0 mm 1 mps 755 mmHg 70%
06:00 +9°C° 0 mm 1 mps 755 mmHg 69%
07:00 +11°C° 0 mm 1 mps 755 mmHg 63%
08:00 +12°C° 0 mm 1 mps 755 mmHg 57%
09:00 +14°C° 0 mm 2 mps 755 mmHg 51%
10:00 +14°C° 0 mm 2 mps 755 mmHg 48%
11:00 +15°C° 0 mm 1 mps 755 mmHg 45%
12:00 +16°C° 0 mm 1 mps 756 mmHg 41%
13:00 +16°C° 0 mm 1 mps 755 mmHg 42%
14:00 +16°C° 0 mm 1 mps 755 mmHg 42%
15:00 +16°C° 0 mm 2 mps 755 mmHg 43%
16:00 +16°C° 0 mm 1 mps 755 mmHg 47%
17:00 +15°C° 0 mm 1 mps 755 mmHg 51%
18:00 +15°C° 0 mm 1 mps 755 mmHg 54%
19:00 +14°C° 0 mm 1 mps 755 mmHg 57%
20:00 +14°C° 0 mm 1 mps 756 mmHg 59%
21:00 +13°C° 0 mm 1 mps 756 mmHg 62%
22:00 +13°C° 0 mm 1 mps 756 mmHg 63%
23:00 +12°C° 0 mm 1 mps 755 mmHg 64%

23 April, Friday

Time Temperature Precipitation Wind Pressure Humidity
00:00 +12°C° 0 mm 1 mps 755 mmHg 65%
01:00 +12°C° 0 mm 1 mps 755 mmHg 66%
02:00 +11°C° 0 mm 1 mps 755 mmHg 67%
03:00 +11°C° 0 mm 1 mps 755 mmHg 68%
04:00 +11°C° 0 mm 1 mps 755 mmHg 69%
05:00 +11°C° 0 mm 1 mps 755 mmHg 69%
06:00 +10°C° 0 mm 1 mps 755 mmHg 70%
07:00 +12°C° 0 mm 1 mps 755 mmHg 65%
08:00 +13°C° 0 mm 1 mps 755 mmHg 60%
09:00 +14°C° 0 mm 1 mps 756 mmHg 55%
10:00 +15°C° 0.1 mm 1 mps 755 mmHg 52%
11:00 +16°C° 0.1 mm 2 mps 755 mmHg 48%
12:00 +17°C° 0.1 mm 2 mps 755 mmHg 44%
13:00 +17°C° 0.1 mm 2 mps 755 mmHg 45%
14:00 +17°C° 0.1 mm 2 mps 755 mmHg 45%
15:00 +17°C° 0.1 mm 2 mps 754 mmHg 46%
16:00 +17°C° 0.1 mm 2 mps 754 mmHg 48%
17:00 +17°C° 0.1 mm 2 mps 754 mmHg 50%
18:00 +17°C° 0.1 mm 2 mps 754 mmHg 52%
19:00 +15°C° 0.1 mm 2 mps 754 mmHg 59%
20:00 +14°C° 0.1 mm 2 mps 755 mmHg 66%
21:00 +13°C° 0.1 mm 2 mps 755 mmHg 73%
22:00 +12°C° 0 mm 2 mps 755 mmHg 75%
23:00 +12°C° 0 mm 1 mps 754 mmHg 77%
Show more